contact:dominique.lefevre@mio.osupytheas.fr, maurice.libes@osupytheas.fr, didier.mallarino@osupytheas.fr
Project:EMSO http://www.emso-fr.org/EMSO-France
Depth: 2436.0 m
Title:EMSO Ligure Ouest : Data MII capteur AQUADOPP
Date,Latitude,Longitude,X_East,Y_North,Z_Up,Amplitude_X,Amplitude_Y,Amplitude_Z,Batterie,SoundSpeed,Heading,Pitch,Roll,Pressure,TIS,Speed,Direction
, degrees North, degrees East, m.s-1, m.s-1,m.s-1, 1, 1, 1, Volt, m.s-1, degree, degree, degree, dbar, degree_C, m.s-1, degree
2023-08-11T00:04:03,42.805,6.029,-0.022,0.016,-0.013,104.0,105.0,103.0,13.3,1505.2,329.8,-0.8,1.8,2471.522,13.29,0.027,306.0
2023-08-11T00:07:03,42.805,6.029,-0.003,0.02,0.0,103.0,105.0,102.0,13.3,1505.2,319.2,-0.8,1.8,2471.539,13.29,0.02,351.5
2023-08-11T00:10:03,42.805,6.029,0.012,0.036,-0.001,104.0,104.0,103.0,13.4,1505.2,344.5,-0.8,1.8,2471.513,13.29,0.037,18.4
2023-08-11T00:13:03,42.805,6.029,-0.018,0.018,-0.031,106.0,103.0,104.0,13.4,1505.2,346.9,-0.8,1.8,2471.503,13.29,0.025,315.0
2023-08-11T00:16:03,42.805,6.029,-0.005,0.008,0.016,106.0,102.0,104.0,13.4,1505.2,348.0,-0.8,1.8,2471.552,13.29,0.009,328.0
2023-08-11T00:19:03,42.805,6.029,-0.001,0.006,-0.001,104.0,106.0,102.0,13.3,1505.2,327.7,-0.7,1.8,2471.521,13.29,0.006,350.5
2023-08-11T00:22:03,42.805,6.029,-0.03,0.014,-0.016,104.0,104.0,103.0,13.4,1505.2,326.3,-0.8,1.8,2471.487,13.29,0.033,295.0
2023-08-11T00:25:03,42.805,6.029,-0.02,0.026,-0.016,106.0,105.0,102.0,13.4,1505.2,343.9,-0.8,1.8,2471.49,13.29,0.032,322.4
2023-08-11T00:28:03,42.805,6.029,-0.011,0.022,-0.042,104.0,104.0,104.0,13.4,1505.2,327.4,-0.8,1.8,2471.515,13.29,0.024,333.4
2023-08-11T00:31:03,42.805,6.029,-0.012,0.002,-0.049,105.0,104.0,102.0,13.4,1505.2,322.9,-0.8,1.8,2471.513,13.3,0.012,279.5
2023-08-11T00:34:03,42.805,6.029,-0.007,0.009,-0.018,105.0,104.0,103.0,13.4,1505.2,344.8,-0.8,1.8,2471.473,13.3,0.011,322.1
2023-08-11T00:37:03,42.805,6.029,0.02,0.005,-0.001,104.0,104.0,102.0,13.3,1505.2,337.8,-0.8,1.8,2471.494,13.29,0.02,76.0
2023-08-11T00:40:03,42.805,6.029,0.013,0.03,0.018,105.0,105.0,102.0,13.3,1505.2,339.7,-0.8,1.8,2471.496,13.29,0.032,23.4
2023-08-11T00:43:03,42.805,6.029,0.008,0.022,0.003,104.0,105.0,103.0,13.4,1505.2,329.6,-0.8,1.8,2471.508,13.29,0.023,20.0
2023-08-11T00:46:03,42.805,6.029,0.0,0.024,-0.043,104.0,104.0,103.0,13.3,1505.2,334.3,-0.7,1.8,2471.468,13.29,0.024,0.0
2023-08-11T00:49:03,42.805,6.029,0.001,0.02,-0.023,105.0,103.0,104.0,13.3,1505.2,336.8,-0.7,1.8,2471.492,13.29,0.02,2.9
2023-08-11T00:52:03,42.805,6.029,-0.01,0.023,-0.017,104.0,105.0,102.0,13.4,1505.2,332.4,-0.8,1.8,2471.472,13.29,0.025,336.5
2023-08-11T00:55:03,42.805,6.029,-0.01,0.027,0.011,104.0,104.0,102.0,13.4,1505.2,330.4,-0.7,1.8,2471.487,13.29,0.028,339.7
2023-08-11T00:58:03,42.805,6.029,-0.01,0.001,-0.012,104.0,106.0,102.0,13.4,1505.2,336.6,-0.7,1.8,2471.492,13.29,0.01,275.7
2023-08-11T01:04:03,42.805,6.029,0.025,0.007,-0.028,106.0,105.0,104.0,13.3,1505.2,332.9,-0.8,1.9,2471.545,13.29,0.025,74.4
2023-08-11T01:07:03,42.805,6.029,-0.016,0.015,0.008,104.0,105.0,103.0,13.4,1505.2,326.6,-0.8,1.8,2471.512,13.29,0.021,313.1
2023-08-11T01:10:03,42.805,6.029,-0.02,0.037,-0.006,105.0,104.0,103.0,13.3,1505.2,328.8,-0.7,1.8,2471.553,13.29,0.042,331.6
2023-08-11T01:13:03,42.805,6.029,0.011,-0.003,-0.028,105.0,105.0,102.0,13.4,1505.2,349.1,-0.8,1.8,2471.548,13.29,0.011,105.3
2023-08-11T01:16:03,42.805,6.029,-0.003,0.013,-0.002,105.0,105.0,103.0,13.4,1505.2,340.4,-0.8,1.8,2471.548,13.29,0.013,347.0
2023-08-11T01:19:03,42.805,6.029,-0.005,0.005,-0.007,105.0,104.0,103.0,13.4,1505.2,342.6,-0.8,1.8,2471.528,13.29,0.007,315.0
2023-08-11T01:22:03,42.805,6.029,0.0,0.009,-0.024,105.0,105.0,102.0,13.4,1505.2,329.7,-0.7,1.8,2471.489,13.29,0.009,0.0
2023-08-11T01:25:03,42.805,6.029,0.023,0.018,-0.005,105.0,105.0,103.0,13.4,1505.2,350.3,-0.8,1.8,2471.508,13.29,0.029,52.0
2023-08-11T01:28:03,42.805,6.029,0.0,0.015,-0.024,104.0,105.0,102.0,13.4,1505.2,323.8,-0.8,1.8,2471.521,13.29,0.015,0.0
2023-08-11T01:31:03,42.805,6.029,-0.002,0.034,0.02,104.0,105.0,103.0,13.4,1505.2,323.8,-0.7,1.8,2471.481,13.29,0.034,356.6
2023-08-11T01:34:03,42.805,6.029,-0.001,0.015,-0.023,104.0,104.0,104.0,13.4,1505.2,322.7,-0.7,1.8,2471.528,13.29,0.015,356.2
2023-08-11T01:37:03,42.805,6.029,0.023,0.02,-0.006,107.0,103.0,103.0,13.4,1505.2,333.4,-0.7,1.8,2471.476,13.29,0.03,49.0
2023-08-11T01:40:03,42.805,6.029,0.0,0.026,-0.006,104.0,105.0,102.0,13.3,1505.2,349.1,-0.8,1.8,2471.543,13.29,0.026,0.0
2023-08-11T01:43:03,42.805,6.029,0.001,0.021,-0.005,104.0,104.0,103.0,13.4,1505.2,330.3,-0.7,1.8,2471.459,13.29,0.021,2.7
2023-08-11T01:46:03,42.805,6.029,-0.007,0.018,-0.021,105.0,105.0,103.0,13.4,1505.2,332.5,-0.7,1.8,2471.497,13.29,0.019,338.8
2023-08-11T01:49:03,42.805,6.029,0.014,0.018,0.002,105.0,104.0,103.0,13.3,1505.2,331.7,-0.8,1.8,2471.489,13.29,0.022,37.9
2023-08-11T01:52:03,42.805,6.029,0.029,0.007,-0.023,106.0,105.0,103.0,13.4,1505.2,326.6,-0.8,1.8,2471.516,13.29,0.029,76.4
2023-08-11T01:55:03,42.805,6.029,-0.006,0.006,-0.02,106.0,105.0,102.0,13.4,1505.2,338.8,-0.7,1.8,2471.547,13.29,0.008,315.0
2023-08-11T01:58:03,42.805,6.029,-0.005,0.016,-0.018,104.0,104.0,103.0,13.4,1505.2,339.9,-0.8,1.8,2471.514,13.29,0.016,342.6
2023-08-11T02:04:03,42.805,6.029,0.027,-0.001,-0.001,104.0,105.0,103.0,13.4,1505.2,340.8,-0.8,1.8,2471.573,13.29,0.027,92.1
2023-08-11T02:07:03,42.805,6.029,0.011,0.009,0.02,104.0,104.0,102.0,13.3,1505.2,351.4,-0.8,1.8,2471.58,13.29,0.014,50.7
2023-08-11T02:10:03,42.805,6.029,0.002,-0.004,0.0,104.0,105.0,103.0,13.4,1505.2,331.7,-0.7,1.8,2471.542,13.29,0.004,153.4
2023-08-11T02:13:03,42.805,6.029,-0.006,0.021,-0.001,105.0,103.0,104.0,13.4,1505.2,330.3,-0.7,1.8,2471.531,13.29,0.021,344.1
2023-08-11T02:16:03,42.805,6.029,-0.009,0.019,0.005,105.0,104.0,103.0,13.3,1505.2,336.8,-0.7,1.8,2471.522,13.29,0.021,334.7
2023-08-11T02:19:03,42.805,6.029,0.018,0.0,-0.005,105.0,105.0,102.0,13.4,1505.2,331.1,-0.8,1.9,2471.524,13.29,0.018,90.0
2023-08-11T02:22:03,42.805,6.029,0.003,0.016,-0.018,104.0,105.0,103.0,13.4,1505.2,350.7,-0.8,1.8,2471.566,13.29,0.016,10.6
2023-08-11T02:25:03,42.805,6.029,0.021,0.008,-0.003,105.0,105.0,102.0,13.3,1505.2,347.8,-0.7,1.8,2471.554,13.29,0.022,69.1
2023-08-11T02:28:03,42.805,6.029,0.022,0.021,-0.011,104.0,105.0,103.0,13.4,1505.2,318.3,-0.8,1.8,2471.55,13.29,0.03,46.3
2023-08-11T02:31:03,42.805,6.029,-0.001,0.011,-0.033,105.0,104.0,103.0,13.4,1505.2,332.9,-0.8,1.8,2471.542,13.3,0.011,354.8
2023-08-11T02:34:03,42.805,6.029,0.013,0.029,0.008,106.0,105.0,103.0,13.3,1505.2,338.0,-0.8,1.8,2471.53,13.3,0.031,24.1
2023-08-11T02:37:03,42.805,6.029,-0.022,0.037,-0.011,105.0,104.0,103.0,13.3,1505.2,328.3,-0.8,1.8,2471.524,13.3,0.043,329.3
2023-08-11T02:40:03,42.805,6.029,0.009,0.01,-0.011,106.0,104.0,102.0,13.4,1505.2,328.8,-0.8,1.8,2471.51,13.3,0.013,42.0
2023-08-11T02:43:03,42.805,6.029,0.026,0.018,0.007,106.0,103.0,102.0,13.4,1505.2,342.6,-0.8,1.8,2471.503,13.3,0.031,55.3
2023-08-11T02:46:03,42.805,6.029,-0.005,0.025,-0.004,105.0,104.0,102.0,13.4,1505.2,328.5,-0.8,1.8,2471.516,13.3,0.025,348.7
2023-08-11T02:49:03,42.805,6.029,0.017,-0.003,-0.013,103.0,105.0,103.0,13.4,1505.2,323.3,-0.8,1.8,2471.517,13.3,0.017,100.0
2023-08-11T02:52:03,42.805,6.029,-0.002,0.024,-0.005,105.0,104.0,103.0,13.4,1505.2,328.6,-0.8,1.8,2471.54,13.3,0.024,355.2
2023-08-11T02:55:03,42.805,6.029,0.03,0.02,-0.011,104.0,104.0,103.0,13.4,1505.2,347.0,-0.8,1.8,2471.521,13.3,0.036,56.3
2023-08-11T02:58:03,42.805,6.029,0.018,0.009,-0.008,105.0,104.0,101.0,13.4,1505.2,327.9,-0.8,1.8,2471.552,13.29,0.02,63.4
2023-08-11T03:04:03,42.805,6.029,0.008,0.009,-0.022,105.0,104.0,102.0,13.4,1505.2,345.0,-0.7,1.8,2471.58,13.29,0.012,41.6
2023-08-11T03:07:03,42.805,6.029,-0.001,0.011,0.001,105.0,104.0,102.0,13.4,1505.2,331.3,-0.8,1.8,2471.554,13.29,0.011,354.8
2023-08-11T03:10:03,42.805,6.029,-0.007,0.02,0.015,105.0,105.0,102.0,13.4,1505.2,324.5,-0.7,1.8,2471.556,13.29,0.021,340.7
2023-08-11T03:13:03,42.805,6.029,0.009,0.005,0.002,105.0,106.0,102.0,13.4,1505.2,328.4,-0.8,1.8,2471.569,13.29,0.01,60.9
2023-08-11T03:16:03,42.805,6.029,-0.014,0.03,-0.017,105.0,104.0,102.0,13.3,1505.2,328.5,-0.8,1.8,2471.544,13.29,0.033,335.0
2023-08-11T03:19:03,42.805,6.029,0.024,0.035,0.009,104.0,105.0,102.0,13.4,1505.2,337.9,-0.8,1.8,2471.564,13.29,0.042,34.4
2023-08-11T03:22:03,42.805,6.029,0.025,0.043,-0.015,104.0,106.0,103.0,13.3,1505.2,341.2,-0.8,1.8,2471.534,13.29,0.049,30.2
2023-08-11T03:25:03,42.805,6.029,0.025,0.018,0.008,105.0,105.0,103.0,13.4,1505.2,348.9,-0.8,1.8,2471.552,13.29,0.03,54.2
2023-08-11T03:28:03,42.805,6.029,0.001,0.017,0.003,106.0,103.0,105.0,13.4,1505.2,322.2,-0.8,1.8,2471.523,13.29,0.017,3.4
2023-08-11T03:31:03,42.805,6.029,0.0,0.014,0.003,105.0,104.0,103.0,13.3,1505.2,326.5,-0.8,1.8,2471.524,13.29,0.014,0.0
2023-08-11T03:34:03,42.805,6.029,0.026,0.0,-0.002,106.0,104.0,102.0,13.4,1505.2,345.9,-0.8,1.8,2471.484,13.29,0.026,90.0
2023-08-11T03:37:03,42.805,6.029,-0.029,0.017,-0.056,104.0,106.0,102.0,13.4,1505.2,336.4,-0.8,1.8,2471.505,13.29,0.033,300.4
2023-08-11T03:40:03,42.805,6.029,0.02,0.01,-0.01,105.0,106.0,102.0,13.4,1505.2,350.3,-0.8,1.8,2471.521,13.29,0.022,63.4
2023-08-11T03:43:03,42.805,6.029,0.0,0.009,0.015,104.0,104.0,102.0,13.3,1505.2,326.0,-0.7,1.8,2471.487,13.29,0.009,0.0
2023-08-11T03:46:03,42.805,6.029,-0.001,0.036,0.0,104.0,105.0,103.0,13.3,1505.2,327.4,-0.8,1.8,2471.516,13.29,0.036,358.4
2023-08-11T03:49:03,42.805,6.029,-0.001,0.037,-0.006,105.0,104.0,103.0,13.3,1505.2,319.1,-0.8,1.8,2471.499,13.29,0.037,358.5
2023-08-11T03:52:03,42.805,6.029,0.0,0.037,-0.012,106.0,103.0,103.0,13.3,1505.2,341.5,-0.7,1.8,2471.486,13.29,0.037,0.0
2023-08-11T03:55:03,42.805,6.029,-0.004,0.021,-0.014,104.0,105.0,103.0,13.4,1505.2,330.7,-0.8,1.8,2471.497,13.29,0.021,349.2
2023-08-11T03:58:03,42.805,6.029,0.027,0.025,-0.002,105.0,104.0,102.0,13.4,1505.2,339.0,-0.7,1.8,2471.474,13.29,0.036,47.2
2023-08-11T04:04:03,42.805,6.029,0.029,0.022,0.027,104.0,104.0,103.0,13.4,1505.2,350.3,-0.8,1.8,2471.603,13.29,0.036,52.8
2023-08-11T04:07:03,42.805,6.029,-0.005,0.009,-0.031,105.0,105.0,103.0,13.3,1505.2,326.0,-0.8,1.8,2471.566,13.29,0.01,330.9
2023-08-11T04:10:03,42.805,6.029,0.011,0.022,-0.033,105.0,105.0,102.0,13.4,1505.2,322.9,-0.8,1.8,2471.532,13.29,0.024,26.6
2023-08-11T04:13:03,42.805,6.029,-0.005,0.033,0.0,105.0,103.0,104.0,13.4,1505.2,321.8,-0.8,1.8,2471.535,13.29,0.033,351.4
2023-08-11T04:16:03,42.805,6.029,0.009,0.009,-0.049,104.0,104.0,103.0,13.4,1505.2,339.4,-0.8,1.8,2471.582,13.29,0.012,45.0
2023-08-11T04:19:03,42.805,6.029,0.028,0.011,-0.008,108.0,104.0,102.0,13.4,1505.2,326.5,-0.8,1.8,2471.547,13.29,0.03,68.6
2023-08-11T04:22:03,42.805,6.029,-0.006,0.034,-0.036,105.0,104.0,103.0,13.3,1505.2,327.9,-0.8,1.8,2471.508,13.29,0.034,350.0
2023-08-11T04:25:03,42.805,6.029,0.014,0.005,-0.018,105.0,104.0,103.0,13.3,1505.2,324.0,-0.7,1.8,2471.547,13.29,0.014,70.4
2023-08-11T04:28:03,42.805,6.029,0.005,0.005,-0.017,105.0,103.0,104.0,13.4,1505.2,342.7,-0.8,1.8,2471.491,13.29,0.007,45.0
2023-08-11T04:31:03,42.805,6.029,0.002,0.024,-0.024,105.0,104.0,103.0,13.4,1505.2,340.5,-0.8,1.8,2471.51,13.29,0.024,4.8
2023-08-11T04:34:03,42.805,6.029,0.007,0.019,-0.002,105.0,105.0,103.0,13.4,1505.2,342.8,-0.8,1.8,2471.483,13.29,0.02,20.2
2023-08-11T04:37:03,42.805,6.029,0.011,0.006,0.011,105.0,105.0,103.0,13.4,1505.2,338.5,-0.8,1.8,2471.521,13.29,0.012,61.4
2023-08-11T04:40:03,42.805,6.029,0.024,0.017,-0.002,105.0,104.0,102.0,13.3,1505.2,343.7,-0.8,1.8,2471.5,13.29,0.029,54.7
2023-08-11T04:43:03,42.805,6.029,0.016,0.001,-0.01,105.0,104.0,102.0,13.3,1505.2,340.1,-0.8,1.8,2471.499,13.29,0.016,86.4
2023-08-11T04:46:03,42.805,6.029,0.031,0.006,-0.021,106.0,103.0,103.0,13.4,1505.2,350.1,-0.8,1.8,2471.479,13.29,0.031,79.0
2023-08-11T04:49:03,42.805,6.029,0.001,0.005,-0.015,106.0,105.0,102.0,13.4,1505.2,325.3,-0.8,1.8,2471.516,13.29,0.005,11.3
2023-08-11T04:52:03,42.805,6.029,0.022,0.021,-0.008,106.0,104.0,103.0,13.4,1505.2,337.3,-0.8,1.8,2471.513,13.29,0.03,46.3
2023-08-11T04:55:03,42.805,6.029,0.01,0.005,-0.02,104.0,105.0,103.0,13.4,1505.2,329.8,-0.8,1.8,2471.52,13.29,0.011,63.4
2023-08-11T04:58:03,42.805,6.029,0.004,-0.006,-0.039,105.0,106.0,104.0,13.4,1505.2,343.4,-0.7,1.8,2471.484,13.29,0.007,146.3
2023-08-11T05:04:03,42.805,6.029,0.018,0.015,-0.02,104.0,106.0,102.0,13.3,1505.2,322.6,-0.7,1.8,2471.585,13.29,0.023,50.2
2023-08-11T05:07:03,42.805,6.029,0.017,-0.005,-0.021,105.0,104.0,102.0,13.4,1505.2,330.2,-0.8,1.8,2471.522,13.29,0.017,106.4
2023-08-11T05:10:03,42.805,6.029,0.003,0.007,-0.014,104.0,106.0,103.0,13.4,1505.2,323.4,-0.7,1.8,2471.506,13.29,0.007,23.2
2023-08-11T05:13:03,42.805,6.029,-0.001,0.007,-0.016,104.0,105.0,104.0,13.3,1505.2,325.4,-0.8,1.8,2471.488,13.29,0.007,351.9
2023-08-11T05:16:03,42.805,6.029,-0.004,0.009,-0.011,105.0,105.0,103.0,13.4,1505.2,323.1,-0.8,1.8,2471.523,13.29,0.009,336.0
2023-08-11T05:19:03,42.805,6.029,0.0,0.009,-0.027,105.0,105.0,102.0,13.3,1505.2,326.8,-0.7,1.8,2471.472,13.29,0.009,0.0
2023-08-11T05:22:03,42.805,6.029,0.015,0.027,-0.001,105.0,104.0,103.0,13.4,1505.2,321.6,-0.8,1.8,2471.497,13.29,0.03,29.1
2023-08-11T05:25:03,42.805,6.029,0.017,0.012,-0.013,104.0,105.0,102.0,13.3,1505.2,321.6,-0.7,1.8,2471.511,13.29,0.02,54.8
2023-08-11T05:28:03,42.805,6.029,0.013,0.015,0.0,103.0,104.0,103.0,13.4,1505.2,321.8,-0.8,1.8,2471.51,13.29,0.019,40.9
2023-08-11T05:31:03,42.805,6.029,-0.011,-0.003,0.008,106.0,104.0,103.0,13.3,1505.2,326.0,-0.7,1.8,2471.551,13.29,0.011,254.7
2023-08-11T05:34:03,42.805,6.029,0.012,0.007,0.0,105.0,105.0,103.0,13.3,1505.2,321.8,-0.8,1.8,2471.495,13.29,0.013,59.7
2023-08-11T05:37:03,42.805,6.029,0.01,0.026,-0.027,105.0,104.0,103.0,13.3,1505.2,326.3,-0.8,1.8,2471.517,13.29,0.027,21.0
2023-08-11T05:40:03,42.805,6.029,0.026,-0.011,0.004,105.0,105.0,102.0,13.3,1505.2,333.4,-0.8,1.8,2471.494,13.29,0.028,112.9
2023-08-11T05:43:03,42.805,6.029,0.029,0.01,-0.004,104.0,104.0,103.0,13.3,1505.2,331.3,-0.8,1.8,2471.502,13.29,0.03,71.0
2023-08-11T05:46:03,42.805,6.029,0.009,-0.009,-0.01,105.0,105.0,103.0,13.4,1505.2,342.3,-0.8,1.8,2471.517,13.29,0.012,135.0
2023-08-11T05:49:03,42.805,6.029,0.014,0.004,-0.005,103.0,104.0,103.0,13.3,1505.2,330.9,-0.7,1.8,2471.481,13.29,0.014,74.1
2023-08-11T05:52:03,42.805,6.029,0.008,0.006,-0.013,105.0,104.0,103.0,13.3,1505.2,329.1,-0.8,1.8,2471.516,13.29,0.01,53.1
2023-08-11T05:55:03,42.805,6.029,0.05,0.003,0.004,105.0,105.0,103.0,13.4,1505.2,336.1,-0.7,1.8,2471.477,13.29,0.05,86.6
2023-08-11T05:58:03,42.805,6.029,0.027,0.0,0.01,105.0,103.0,103.0,13.4,1505.2,328.5,-0.8,1.8,2471.454,13.29,0.026,90.0
2023-08-11T06:04:03,42.805,6.029,0.009,0.021,-0.002,104.0,105.0,102.0,13.4,1505.2,347.7,-0.7,1.8,2471.544,13.29,0.022,23.2
2023-08-11T06:07:03,42.805,6.029,0.014,0.0,0.02,105.0,104.0,103.0,13.3,1505.2,350.9,-0.8,1.8,2471.534,13.29,0.014,90.0
2023-08-11T06:10:03,42.805,6.029,0.015,-0.008,0.016,105.0,104.0,103.0,13.4,1505.2,326.0,-0.7,1.8,2471.518,13.29,0.017,118.1
2023-08-11T06:13:03,42.805,6.029,0.009,0.004,-0.018,106.0,105.0,103.0,13.4,1505.2,329.8,-0.8,1.8,2471.534,13.29,0.009,66.0
2023-08-11T06:16:03,42.805,6.029,0.001,0.009,-0.044,105.0,105.0,101.0,13.3,1505.2,333.9,-0.8,1.8,2471.529,13.29,0.009,6.3
2023-08-11T06:19:03,42.805,6.029,0.013,0.011,-0.018,104.0,105.0,103.0,13.3,1505.2,341.1,-0.8,1.8,2471.501,13.29,0.017,49.8
2023-08-11T06:22:03,42.805,6.029,0.018,-0.007,-0.033,105.0,105.0,103.0,13.4,1505.2,326.5,-0.8,1.8,2471.473,13.29,0.019,111.2
2023-08-11T06:25:03,42.805,6.029,0.012,-0.009,-0.05,105.0,104.0,103.0,13.4,1505.2,332.3,-0.8,1.8,2471.49,13.29,0.015,126.9
2023-08-11T06:28:03,42.805,6.029,0.018,0.001,-0.002,105.0,104.0,103.0,13.4,1505.2,345.6,-0.8,1.8,2471.519,13.29,0.018,86.8
2023-08-11T06:31:03,42.805,6.029,0.012,-0.001,-0.023,106.0,106.0,103.0,13.3,1505.2,348.4,-0.8,1.8,2471.478,13.29,0.012,94.8
2023-08-11T06:34:03,42.805,6.029,0.042,-0.011,0.04,104.0,104.0,103.0,13.3,1505.2,326.9,-0.8,1.8,2471.465,13.29,0.043,104.7
2023-08-11T06:37:03,42.805,6.029,0.026,0.017,-0.016,106.0,104.0,102.0,13.4,1505.2,321.0,-0.8,1.8,2471.494,13.29,0.031,56.8
2023-08-11T06:40:03,42.805,6.029,0.019,-0.021,-0.01,106.0,105.0,103.0,13.3,1505.2,348.9,-0.8,1.8,2471.485,13.29,0.028,137.9
2023-08-11T06:43:03,42.805,6.029,0.006,-0.018,-0.034,105.0,106.0,103.0,13.4,1505.2,319.9,-0.8,1.8,2471.497,13.29,0.018,161.6
2023-08-11T06:46:03,42.805,6.029,0.022,-0.009,-0.001,105.0,106.0,103.0,13.3,1505.2,336.9,-0.8,1.8,2471.481,13.29,0.023,112.2
2023-08-11T06:49:03,42.805,6.029,0.034,-0.03,-0.019,105.0,105.0,104.0,13.4,1505.2,338.4,-0.8,1.8,2471.479,13.29,0.045,131.4
2023-08-11T06:52:03,42.805,6.029,0.019,0.016,0.033,105.0,105.0,102.0,13.3,1505.2,336.8,-0.7,1.8,2471.455,13.29,0.024,49.9
2023-08-11T06:55:03,42.805,6.029,0.013,-0.007,-0.035,105.0,104.0,103.0,13.4,1505.2,330.3,-0.8,1.8,2471.452,13.29,0.014,118.3
2023-08-11T06:58:03,42.805,6.029,0.018,0.011,0.01,106.0,104.0,103.0,13.4,1505.2,326.5,-0.8,1.8,2471.484,13.29,0.021,58.6
2023-08-11T07:04:03,42.805,6.029,0.028,-0.007,0.008,105.0,105.0,103.0,13.4,1505.2,325.4,-0.8,1.8,2471.525,13.28,0.028,104.0
2023-08-11T07:07:03,42.805,6.029,0.019,-0.014,-0.035,109.0,106.0,102.0,13.3,1505.2,341.1,-0.8,1.8,2471.535,13.29,0.023,126.4
2023-08-11T07:10:03,42.805,6.029,-0.004,-0.009,-0.016,104.0,105.0,102.0,13.3,1505.2,321.1,-0.8,1.8,2471.504,13.29,0.009,204.0
2023-08-11T07:13:03,42.805,6.029,0.021,-0.005,0.014,104.0,104.0,103.0,13.3,1505.2,349.1,-0.8,1.8,2471.493,13.29,0.021,103.4
2023-08-11T07:16:03,42.805,6.029,0.02,0.006,0.027,106.0,106.0,103.0,13.4,1505.2,324.7,-0.7,1.8,2471.476,13.29,0.02,73.3
2023-08-11T07:19:03,42.805,6.029,0.021,-0.024,-0.016,105.0,104.0,104.0,13.4,1505.2,336.3,-0.8,1.8,2471.447,13.29,0.031,138.8
2023-08-11T07:22:03,42.805,6.029,0.015,-0.006,-0.012,105.0,105.0,103.0,13.4,1505.2,340.4,-0.8,1.8,2471.522,13.29,0.016,111.8
2023-08-11T07:25:03,42.805,6.029,0.009,-0.001,-0.034,105.0,105.0,102.0,13.4,1505.2,349.3,-0.7,1.8,2471.501,13.29,0.009,96.3
2023-08-11T07:28:03,42.805,6.029,0.02,0.0,-0.021,106.0,104.0,103.0,13.3,1505.2,322.2,-0.7,1.8,2471.482,13.29,0.02,90.0
2023-08-11T07:31:03,42.805,6.029,0.015,-0.004,-0.036,106.0,104.0,103.0,13.3,1505.2,341.9,-0.8,1.8,2471.476,13.29,0.015,104.9
2023-08-11T07:34:03,42.805,6.029,0.006,-0.004,-0.017,105.0,104.0,103.0,13.4,1505.2,329.2,-0.8,1.8,2471.447,13.29,0.007,123.7
2023-08-11T07:37:03,42.805,6.029,0.003,-0.014,-0.026,105.0,105.0,103.0,13.3,1505.2,327.9,-0.8,1.9,2471.469,13.29,0.014,167.9
2023-08-11T07:40:03,42.805,6.029,0.034,-0.029,0.004,105.0,104.0,103.0,13.4,1505.2,351.5,-0.8,1.8,2471.523,13.29,0.044,130.5
2023-08-11T07:43:03,42.805,6.029,0.023,-0.005,0.005,107.0,105.0,102.0,13.3,1505.2,341.9,-0.7,1.8,2471.44,13.29,0.023,102.3
2023-08-11T07:46:03,42.805,6.029,0.013,-0.016,-0.004,106.0,104.0,103.0,13.4,1505.2,346.2,-0.8,1.8,2471.486,13.29,0.02,140.9
2023-08-11T07:49:03,42.805,6.029,0.01,-0.025,0.008,106.0,106.0,103.0,13.4,1505.2,337.7,-0.8,1.8,2471.464,13.29,0.026,158.2
2023-08-11T07:52:03,42.805,6.029,0.029,0.002,-0.031,105.0,106.0,103.0,13.4,1505.2,327.4,-0.8,1.8,2471.468,13.29,0.029,86.1
2023-08-11T07:55:03,42.805,6.029,0.0,-0.018,-0.037,106.0,105.0,103.0,13.4,1505.2,351.5,-0.8,1.8,2471.456,13.29,0.018,180.0
2023-08-11T07:58:03,42.805,6.029,0.008,-0.002,-0.036,106.0,106.0,103.0,13.4,1505.2,348.4,-0.7,1.8,2471.469,13.29,0.008,104.0
2023-08-11T08:04:03,42.805,6.029,0.025,0.0,-0.016,105.0,105.0,103.0,13.3,1505.2,321.0,-0.8,1.8,2471.5,13.29,0.025,90.0
2023-08-11T08:07:03,42.805,6.029,0.018,-0.014,-0.021,105.0,104.0,103.0,13.3,1505.2,343.8,-0.8,1.8,2471.456,13.29,0.022,127.9
2023-08-11T08:10:03,42.805,6.029,0.022,-0.001,0.002,104.0,105.0,103.0,13.4,1505.2,330.2,-0.8,1.8,2471.508,13.29,0.022,92.6
2023-08-11T08:13:03,42.805,6.029,0.003,-0.001,-0.006,104.0,105.0,102.0,13.4,1505.2,348.6,-0.8,1.8,2471.477,13.29,0.003,108.4
2023-08-11T08:16:03,42.805,6.029,0.009,-0.021,-0.023,104.0,103.0,102.0,13.4,1505.2,346.2,-0.8,1.8,2471.457,13.29,0.022,156.8
2023-08-11T08:19:03,42.805,6.029,0.013,-0.012,0.001,103.0,104.0,103.0,13.4,1505.2,328.5,-0.7,1.8,2471.461,13.29,0.017,132.7
2023-08-11T08:22:03,42.805,6.029,0.025,-0.016,-0.02,104.0,104.0,103.0,13.4,1505.2,341.1,-0.8,1.8,2471.459,13.29,0.029,122.6
2023-08-11T08:25:03,42.805,6.029,0.026,-0.011,-0.006,105.0,103.0,102.0,13.4,1505.2,333.4,-0.8,1.8,2471.47,13.29,0.028,112.9
2023-08-11T08:28:03,42.805,6.029,0.039,-0.022,-0.012,105.0,103.0,102.0,13.4,1505.2,327.0,-0.7,1.8,2471.488,13.29,0.044,119.4
2023-08-11T08:31:03,42.805,6.029,0.032,-0.011,-0.021,104.0,103.0,103.0,13.4,1505.2,324.7,-0.7,1.8,2471.486,13.29,0.033,109.0
2023-08-11T08:34:03,42.805,6.029,0.04,-0.011,-0.011,104.0,103.0,103.0,13.4,1505.2,330.8,-0.8,1.8,2471.441,13.29,0.041,105.4
2023-08-11T08:37:03,42.805,6.029,0.016,-0.021,-0.023,105.0,103.0,103.0,13.4,1505.2,330.8,-0.7,1.8,2471.438,13.29,0.026,142.7
2023-08-11T08:40:03,42.805,6.029,0.016,-0.002,-0.028,104.0,104.0,103.0,13.4,1505.2,332.5,-0.8,1.8,2471.454,13.29,0.016,97.1
2023-08-11T08:43:03,42.805,6.029,0.026,0.013,0.015,103.0,103.0,104.0,13.4,1505.2,329.0,-0.8,1.8,2471.456,13.29,0.029,63.4
2023-08-11T08:46:03,42.805,6.029,0.028,-0.015,0.0,103.0,103.0,102.0,13.4,1505.2,323.3,-0.8,1.8,2471.426,13.29,0.031,118.2
2023-08-11T08:49:03,42.805,6.029,0.035,-0.017,-0.044,105.0,103.0,102.0,13.4,1505.2,325.3,-0.8,1.8,2471.423,13.29,0.038,115.9
2023-08-11T08:52:03,42.805,6.029,0.021,-0.005,-0.018,104.0,103.0,102.0,13.4,1505.2,327.9,-0.8,1.8,2471.461,13.29,0.021,103.4
2023-08-11T08:55:03,42.805,6.029,0.021,-0.027,-0.037,103.0,104.0,103.0,13.4,1505.2,347.5,-0.8,1.8,2471.435,13.29,0.034,142.1
2023-08-11T08:58:03,42.805,6.029,0.011,-0.008,-0.02,105.0,104.0,102.0,13.3,1505.2,329.3,-0.8,1.8,2471.425,13.29,0.013,126.0
2023-08-11T09:04:03,42.805,6.029,0.002,-0.001,-0.018,104.0,103.0,102.0,13.4,1505.2,336.3,-0.8,1.8,2471.464,13.28,0.002,116.6
2023-08-11T09:07:03,42.805,6.029,0.013,-0.02,-0.023,105.0,103.0,103.0,13.3,1505.2,350.1,-0.8,1.8,2471.53,13.29,0.023,147.0
2023-08-11T09:10:03,42.805,6.029,0.013,-0.02,-0.026,105.0,103.0,103.0,13.4,1505.2,340.9,-0.8,1.8,2471.47,13.29,0.023,147.0
2023-08-11T09:13:03,42.805,6.029,0.013,0.001,-0.022,103.0,105.0,101.0,13.3,1505.2,334.8,-0.8,1.8,2471.494,13.29,0.013,85.6
2023-08-11T09:16:03,42.805,6.029,-0.01,-0.008,0.01,104.0,103.0,103.0,13.3,1505.2,329.2,-0.8,1.8,2471.458,13.29,0.012,231.3
2023-08-11T09:19:03,42.805,6.029,-0.005,-0.013,-0.018,105.0,102.0,102.0,13.4,1505.2,350.7,-0.8,1.8,2471.457,13.29,0.013,201.0
2023-08-11T09:22:03,42.805,6.029,0.001,-0.022,-0.028,104.0,104.0,102.0,13.3,1505.2,323.1,-0.8,1.8,2471.486,13.29,0.022,177.4
2023-08-11T09:25:03,42.805,6.029,0.009,-0.014,-0.029,103.0,105.0,102.0,13.3,1505.2,327.1,-0.8,1.8,2471.455,13.29,0.016,147.3
2023-08-11T09:28:03,42.805,6.029,0.025,-0.032,-0.021,105.0,103.0,102.0,13.3,1505.2,335.5,-0.8,1.8,2471.455,13.29,0.04,142.0
2023-08-11T09:31:03,42.805,6.029,0.03,0.0,0.002,103.0,104.0,103.0,13.4,1505.2,327.9,-0.7,1.8,2471.421,13.29,0.03,90.0
2023-08-11T09:34:03,42.805,6.029,0.014,-0.009,-0.04,105.0,103.0,103.0,13.3,1505.2,331.3,-0.8,1.8,2471.439,13.29,0.016,122.7
2023-08-11T09:37:03,42.805,6.029,0.003,0.001,0.006,104.0,104.0,102.0,13.3,1505.2,329.3,-0.8,1.8,2471.449,13.29,0.003,71.6
2023-08-11T09:40:03,42.805,6.029,-0.006,-0.012,-0.016,104.0,104.0,103.0,13.3,1505.2,350.1,-0.7,1.8,2471.435,13.29,0.013,206.6
2023-08-11T09:43:03,42.805,6.029,0.013,-0.005,-0.005,103.0,103.0,102.0,13.4,1505.2,321.3,-0.8,1.8,2471.467,13.29,0.013,111.0
2023-08-11T09:46:03,42.805,6.029,0.01,-0.017,-0.013,103.0,103.0,102.0,13.3,1505.2,338.2,-0.8,1.8,2471.424,13.29,0.019,149.5
2023-08-11T09:49:03,42.805,6.029,0.014,-0.001,-0.023,104.0,103.0,102.0,13.4,1505.2,330.2,-0.7,1.8,2471.481,13.29,0.014,94.1
2023-08-11T09:52:03,42.805,6.029,0.018,-0.036,-0.031,102.0,103.0,102.0,13.4,1505.2,349.9,-0.8,1.8,2471.466,13.29,0.04,153.4
2023-08-11T09:55:03,42.805,6.029,-0.001,-0.008,-0.039,103.0,104.0,101.0,13.4,1505.2,335.9,-0.8,1.8,2471.451,13.29,0.008,187.1
2023-08-11T09:58:03,42.805,6.029,0.023,-0.001,0.006,103.0,103.0,102.0,13.3,1505.2,334.6,-0.7,1.8,2471.445,13.29,0.023,92.5
2023-08-11T10:04:03,42.805,6.029,0.01,-0.006,-0.041,103.0,102.0,103.0,13.3,1505.2,352.1,-0.8,1.8,2471.492,13.28,0.011,121.0